Location: ??????
(55.8274°N, 37.9338°E)
Time: 03:38:00
(UTC+00:00)

Meteor 2-10 - Pass Details

Date: 14 April 2024
Orbit: 738 x 866 km, 81.2° (Epoch: 20 May)

Event Time Altitude Azimuth Distance (km) Brightness Sun altitude
Rises 00:26:09 0° 344° (NNW) 3,369 7.7 -15.0°
Reaches altitude 10° 00:28:32 10° 343° (NNW) 2,450 7.0 -14.8°
Maximum altitude 00:34:06 77° 259° (WSW) 875 4.1 -14.2°
Drops below altitude 10° 00:39:46 10° 174° (S) 2,495 6.3 -13.6°
Sets 00:42:13 0° 173° (S) 3,435 7.0 -13.3°
